Time,TemperatureF,DewpointF,PressureIn,WindDirection,WindDirectionDegrees,WindSpeedMPH,WindSpeedGustMPH,Humidity,HourlyPrecipIn,Conditions,Clouds,dailyrainin,SoftwareType,DateUTC
2013-02-02 00:19:00,48.5,16.0,30.08,ENE,78,1.0,-999.0,27,-99.99,,,0.00,weatherlink.com 1.10,2013-02-02 08:19:00,
2013-02-02 00:34:00,49.7,14.0,30.07,East,85,0.0,-999.0,24,-99.99,,,0.00,weatherlink.com 1.10,2013-02-02 08:34:00,
2013-02-02 00:49:00,48.5,18.0,30.08,ESE,120,0.0,-999.0,30,-99.99,,,0.00,weatherlink.com 1.10,2013-02-02 08:49:00,
2013-02-02 01:04:00,47.9,20.0,30.08,East,86,0.0,-999.0,33,-99.99,,,0.00,weatherlink.com 1.10,2013-02-02 09:04:00,
2013-02-02 01:19:00,49.1,17.0,30.09,ESE,112,0.0,-999.0,28,-99.99,,,0.00,weatherlink.com 1.10,2013-02-02 09:19:00,
2013-02-02 01:34:00,49.2,19.0,30.09,ESE,109,3.0,-999.0,30,-99.99,,,0.00,weatherlink.com 1.10,2013-02-02 09:34:00,
2013-02-02 01:50:00,49.5,18.0,30.09,ESE,112,5.0,-999.0,29,-99.99,,,0.00,weatherlink.com 1.10,2013-02-02 09:50:00,
2013-02-02 02:04:00,49.2,15.0,30.08,ESE,119,8.0,-999.0,25,-99.99,,,0.00,weatherlink.com 1.10,2013-02-02 10:04:00,
2013-02-02 02:19:00,50.1,10.0,30.09,ESE,102,7.0,-999.0,20,-99.99,,,0.00,weatherlink.com 1.10,2013-02-02 10:19:00,
2013-02-02 02:34:00,50.0,10.0,30.09,ENE,76,5.0,-999.0,20,-99.99,,,0.00,weatherlink.com 1.10,2013-02-02 10:34:00,
2013-02-02 02:49:00,50.7,8.0,30.09,South,172,0.0,-999.0,18,-99.99,,,0.00,weatherlink.com 1.10,2013-02-02 10:49:00,
2013-02-02 03:04:00,49.8,10.0,30.09,East,96,3.0,-999.0,20,-99.99,,,0.00,weatherlink.com 1.10,2013-02-02 11:04:00,
2013-02-02 03:19:00,49.4,12.0,30.10,SE,128,0.0,-999.0,22,-99.99,,,0.00,weatherlink.com 1.10,2013-02-02 11:19:00,
2013-02-02 03:35:00,49.4,11.0,30.10,ESE,104,3.0,-999.0,21,-99.99,,,0.00,weatherlink.com 1.10,2013-02-02 11:35:00,
2013-02-02 03:49:00,49.1,15.0,30.10,ESE,106,6.0,-999.0,25,-99.99,,,0.00,weatherlink.com 1.10,2013-02-02 11:49:00,
2013-02-02 04:04:00,48.3,14.0,30.09,ESE,104,4.0,-999.0,25,-99.99,,,0.00,weatherlink.com 1.10,2013-02-02 12:04:00,
2013-02-02 04:19:00,48.2,16.0,30.11,East,97,4.0,-999.0,28,-99.99,,,0.00,weatherlink.com 1.10,2013-02-02 12:19:00,
2013-02-02 04:34:00,48.2,15.0,30.11,ESE,119,3.0,-999.0,27,-99.99,,,0.00,weatherlink.com 1.10,2013-02-02 12:34:00,
2013-02-02 04:50:00,48.3,16.0,30.11,SSE,158,7.0,-999.0,28,-99.99,,,0.00,weatherlink.com 1.10,2013-02-02 12:50:00,
2013-02-02 05:04:00,48.5,17.0,30.11,ESE,112,5.0,-999.0,28,-99.99,,,0.00,weatherlink.com 1.10,2013-02-02 13:04:00,
2013-02-02 05:19:00,48.3,18.0,30.11,ESE,109,6.0,-999.0,30,-99.99,,,0.00,weatherlink.com 1.10,2013-02-02 13:19:00,
2013-02-02 05:35:00,47.7,20.0,30.12,East,89,10.0,-999.0,34,-99.99,,,0.00,weatherlink.com 1.10,2013-02-02 13:35:00,
2013-02-02 05:49:00,47.9,19.0,30.12,ENE,66,2.0,-999.0,32,-99.99,,,0.00,weatherlink.com 1.10,2013-02-02 13:49:00,
2013-02-02 06:04:00,47.6,22.0,30.12,ESE,103,7.0,-999.0,36,-99.99,,,0.00,weatherlink.com 1.10,2013-02-02 14:04:00,
2013-02-02 06:19:00,46.9,25.0,30.13,East,85,8.0,-999.0,42,-99.99,,,0.00,weatherlink.com 1.10,2013-02-02 14:19:00,
2013-02-02 06:34:00,47.3,21.0,30.13,SE,127,6.0,-999.0,36,-99.99,,,0.00,weatherlink.com 1.10,2013-02-02 14:34:00,
2013-02-02 06:49:00,47.7,22.0,30.13,ESE,121,0.0,-999.0,36,-99.99,,,0.00,weatherlink.com 1.10,2013-02-02 14:49:00,
2013-02-02 07:04:00,47.7,20.0,30.15,East,88,7.0,-999.0,34,-99.99,,,0.00,weatherlink.com 1.10,2013-02-02 15:04:00,
2013-02-02 07:20:00,48.5,17.0,30.14,East,100,1.0,-999.0,29,-99.99,,,0.00,weatherlink.com 1.10,2013-02-02 15:20:00,
2013-02-02 07:34:00,47.9,19.0,30.15,ESE,112,6.0,-999.0,32,-99.99,,,0.00,weatherlink.com 1.10,2013-02-02 15:34:00,
2013-02-02 07:49:00,47.7,18.0,30.16,East,96,5.0,-999.0,30,-99.99,,,0.00,weatherlink.com 1.10,2013-02-02 15:49:00,
2013-02-02 08:05:00,48.2,16.0,30.16,SE,124,8.0,-999.0,28,-99.99,,,0.00,weatherlink.com 1.10,2013-02-02 16:05:00,
2013-02-02 08:19:00,47.9,19.0,30.15,ESE,104,3.0,-999.0,32,-99.99,,,0.00,weatherlink.com 1.10,2013-02-02 16:19:00,
2013-02-02 08:34:00,47.6,22.0,30.16,East,99,5.0,-999.0,37,-99.99,,,0.00,weatherlink.com 1.10,2013-02-02 16:34:00,
2013-02-02 08:51:00,48.8,18.0,30.16,ESE,102,0.0,-999.0,30,-99.99,,,0.00,weatherlink.com 1.10,2013-02-02 16:51:00,
2013-02-02 09:05:00,49.5,17.0,30.15,ESE,113,12.0,-999.0,28,-99.99,,,0.00,weatherlink.com 1.10,2013-02-02 17:05:00,
2013-02-02 09:20:00,48.9,19.0,30.17,ESE,106,1.0,-999.0,31,-99.99,,,0.00,weatherlink.com 1.10,2013-02-02 17:20:00,
2013-02-02 09:34:00,49.2,19.0,30.17,ESE,123,7.0,-999.0,30,-99.99,,,0.00,weatherlink.com 1.10,2013-02-02 17:34:00,
2013-02-02 09:49:00,49.8,21.0,30.17,SSE,150,10.0,-999.0,32,-99.99,,,0.00,weatherlink.com 1.10,2013-02-02 17:49:00,
2013-02-02 10:04:00,50.3,17.0,30.17,SE,126,3.0,-999.0,27,-99.99,,,0.00,weatherlink.com 1.10,2013-02-02 18:04:00,
2013-02-02 10:19:00,50.1,20.0,30.17,East,92,0.0,-999.0,30,-99.99,,,0.00,weatherlink.com 1.10,2013-02-02 18:19:00,
2013-02-02 10:34:00,49.8,20.0,30.18,ESE,110,2.0,-999.0,31,-99.99,,,0.00,weatherlink.com 1.10,2013-02-02 18:34:00,
2013-02-02 10:50:00,50.1,15.0,30.17,ESE,112,11.0,-999.0,25,-99.99,,,0.00,weatherlink.com 1.10,2013-02-02 18:50:00,
2013-02-02 11:05:00,50.0,20.0,30.17,NE,52,2.0,-999.0,31,-99.99,,,0.00,weatherlink.com 1.10,2013-02-02 19:05:00,
2013-02-02 11:31:00,50.8,20.0,30.15,SE,134,1.0,-999.0,30,-99.99,,,0.00,weatherlink.com 1.10,2013-02-02 19:31:00,
2013-02-02 11:49:00,50.3,21.0,30.14,East,79,1.0,-999.0,31,-99.99,,,0.00,weatherlink.com 1.10,2013-02-02 19:49:00,
2013-02-02 12:05:00,50.3,23.0,30.14,ESE,120,0.0,-999.0,34,-99.99,,,0.00,weatherlink.com 1.10,2013-02-02 20:05:00,
2013-02-02 12:19:00,50.3,18.0,30.14,ENE,73,0.0,-999.0,28,-99.99,,,0.00,weatherlink.com 1.10,2013-02-02 20:19:00,
2013-02-02 12:34:00,50.0,20.0,30.13,ESE,113,6.0,-999.0,31,-99.99,,,0.00,weatherlink.com 1.10,2013-02-02 20:34:00,
2013-02-02 12:49:00,50.0,22.0,30.12,East,83,0.0,-999.0,33,-99.99,,,0.00,weatherlink.com 1.10,2013-02-02 20:49:00,
2013-02-02 13:05:00,50.1,21.0,30.11,ESE,102,1.0,-999.0,32,-99.99,,,0.00,weatherlink.com 1.10,2013-02-02 21:05:00,
2013-02-02 13:20:00,50.0,21.0,30.10,East,97,2.0,-999.0,32,-99.99,,,0.00,weatherlink.com 1.10,2013-02-02 21:20:00,
2013-02-02 13:34:00,50.5,17.0,30.09,ESE,102,6.0,-999.0,27,-99.99,,,0.00,weatherlink.com 1.10,2013-02-02 21:34:00,
2013-02-02 13:49:00,51.7,10.0,30.08,East,85,0.0,-999.0,19,-99.99,,,0.00,weatherlink.com 1.10,2013-02-02 21:49:00,
2013-02-02 14:05:00,51.0,18.0,30.07,SE,127,3.0,-999.0,27,-99.99,,,0.00,weatherlink.com 1.10,2013-02-02 22:05:00,
2013-02-02 14:19:00,50.5,18.0,30.09,East,96,0.0,-999.0,28,-99.99,,,0.00,weatherlink.com 1.10,2013-02-02 22:19:00,
2013-02-02 14:34:00,51.1,18.0,30.09,ESE,103,4.0,-999.0,27,-99.99,,,0.00,weatherlink.com 1.10,2013-02-02 22:34:00,
2013-02-02 14:49:00,50.5,22.0,30.09,SE,137,0.0,-999.0,33,-99.99,,,0.00,weatherlink.com 1.10,2013-02-02 22:49:00,
2013-02-02 15:04:00,50.3,22.0,30.09,ESE,102,3.0,-999.0,33,-99.99,,,0.00,weatherlink.com 1.10,2013-02-02 23:04:00,
2013-02-02 15:20:00,50.3,17.0,30.10,East,92,0.0,-999.0,27,-99.99,,,0.00,weatherlink.com 1.10,2013-02-02 23:20:00,
2013-02-02 15:34:00,51.1,18.0,30.10,ESE,107,0.0,-999.0,27,-99.99,,,0.00,weatherlink.com 1.10,2013-02-02 23:34:00,
2013-02-02 15:49:00,51.3,17.0,30.11,ESE,106,0.0,-999.0,26,-99.99,,,0.00,weatherlink.com 1.10,2013-02-02 23:49:00,
2013-02-02 16:04:00,50.3,16.0,30.11,ESE,110,0.0,-999.0,26,-99.99,,,0.00,weatherlink.com 1.10,2013-02-03 00:04:00,
2013-02-02 16:19:00,50.1,17.0,30.11,ESE,110,1.0,-999.0,27,-99.99,,,0.00,weatherlink.com 1.10,2013-02-03 00:19:00,
2013-02-02 16:35:00,49.7,21.0,30.11,East,93,0.0,-999.0,32,-99.99,,,0.00,weatherlink.com 1.10,2013-02-03 00:35:00,
2013-02-02 16:49:00,49.1,16.0,30.11,East,93,0.0,-999.0,27,-99.99,,,0.00,weatherlink.com 1.10,2013-02-03 00:49:00,
2013-02-02 17:05:00,48.9,15.0,30.11,East,93,0.0,-999.0,26,-99.99,,,0.00,weatherlink.com 1.10,2013-02-03 01:05:00,
2013-02-02 17:20:00,48.8,19.0,30.12,East,90,0.0,-999.0,31,-99.99,,,0.00,weatherlink.com 1.10,2013-02-03 01:20:00,
2013-02-02 17:35:00,48.9,23.0,30.13,SW,227,0.0,-999.0,36,-99.99,,,0.00,weatherlink.com 1.10,2013-02-03 01:35:00,
2013-02-02 17:50:00,50.3,23.0,30.11,ENE,66,0.0,-999.0,35,-99.99,,,0.00,weatherlink.com 1.10,2013-02-03 01:50:00,
2013-02-02 18:04:00,49.5,23.0,30.11,SSE,147,11.0,-999.0,36,-99.99,,,0.00,weatherlink.com 1.10,2013-02-03 02:04:00,
2013-02-02 18:19:00,48.8,26.0,30.13,North,1,0.0,-999.0,41,-99.99,,,0.00,weatherlink.com 1.10,2013-02-03 02:19:00,
2013-02-02 18:34:00,48.0,28.0,30.12,East,80,0.0,-999.0,47,-99.99,,,0.00,weatherlink.com 1.10,2013-02-03 02:34:00,
2013-02-02 18:49:00,47.1,28.0,30.14,ENE,78,0.0,-999.0,47,-99.99,,,0.00,weatherlink.com 1.10,2013-02-03 02:49:00,
2013-02-02 19:05:00,47.1,28.0,30.14,East,79,0.0,-999.0,48,-99.99,,,0.00,weatherlink.com 1.10,2013-02-03 03:05:00,
2013-02-02 19:20:00,47.0,28.0,30.14,SE,137,5.0,-999.0,48,-99.99,,,0.00,weatherlink.com 1.10,2013-02-03 03:20:00,
2013-02-02 19:35:00,45.8,29.0,30.14,SE,134,0.0,-999.0,52,-99.99,,,0.00,weatherlink.com 1.10,2013-02-03 03:35:00,
2013-02-02 19:49:00,44.7,32.0,30.15,East,89,3.0,-999.0,61,-99.99,,,0.00,weatherlink.com 1.10,2013-02-03 03:49:00,
2013-02-02 20:04:00,43.2,32.0,30.15,ESE,104,2.0,-999.0,66,-99.99,,,0.00,weatherlink.com 1.10,2013-02-03 04:04:00,
2013-02-02 20:20:00,41.7,35.0,30.16,SSW,198,0.0,-999.0,76,-99.99,,,0.00,weatherlink.com 1.10,2013-02-03 04:20:00,
2013-02-02 20:34:00,41.5,35.0,30.15,South,191,0.0,-999.0,79,-99.99,,,0.00,weatherlink.com 1.10,2013-02-03 04:34:00,
2013-02-02 20:49:00,41.0,36.0,30.14,SSW,198,0.0,-999.0,83,-99.99,,,0.00,weatherlink.com 1.10,2013-02-03 04:49:00,
2013-02-02 21:05:00,40.8,36.0,30.15,SSW,198,0.0,-999.0,82,-99.99,,,0.00,weatherlink.com 1.10,2013-02-03 05:05:00,
2013-02-02 21:19:00,40.7,36.0,30.15,SSW,199,0.0,-999.0,83,-99.99,,,0.00,weatherlink.com 1.10,2013-02-03 05:19:00,
2013-02-02 21:34:00,40.8,36.0,30.15,SSW,200,0.0,-999.0,83,-99.99,,,0.01,weatherlink.com 1.10,2013-02-03 05:34:00,
2013-02-02 21:49:00,40.8,35.0,30.14,South,191,0.0,-999.0,81,-99.99,,,0.01,weatherlink.com 1.10,2013-02-03 05:49:00,
2013-02-02 22:09:00,41.1,35.0,30.14,SSW,198,0.0,-999.0,79,-99.99,,,0.01,weatherlink.com 1.10,2013-02-03 06:09:00,
2013-02-02 22:20:00,41.4,35.0,30.13,East,96,1.0,-999.0,79,-99.99,,,0.01,weatherlink.com 1.10,2013-02-03 06:20:00,
2013-02-02 22:35:00,41.7,35.0,30.11,ESE,103,4.0,-999.0,77,-99.99,,,0.01,weatherlink.com 1.10,2013-02-03 06:35:00,
2013-02-02 22:49:00,41.7,35.0,30.11,ENE,76,0.0,-999.0,76,-99.99,,,0.01,weatherlink.com 1.10,2013-02-03 06:49:00,
2013-02-02 23:04:00,42.0,34.0,30.12,ENE,78,0.0,-999.0,74,-99.99,,,0.01,weatherlink.com 1.10,2013-02-03 07:04:00,
2013-02-02 23:20:00,42.0,35.0,30.11,East,79,1.0,-999.0,75,-99.99,,,0.01,weatherlink.com 1.10,2013-02-03 07:20:00,
2013-02-02 23:34:00,42.2,34.0,30.11,East,90,0.0,-999.0,74,-99.99,,,0.01,weatherlink.com 1.10,2013-02-03 07:34:00,
2013-02-02 23:49:00,42.5,34.0,30.10,ESE,109,0.0,-999.0,72,-99.99,,,0.01,weatherlink.com 1.10,2013-02-03 07:49:00,